#timestamp,LO_Frequency,Hit 
1503853215.7,286046996.2,N
1503853235.5,286046993.5,N
1503853255.3,286046993.5,N
1503853275.3,286046993.9,N
1503853295.2,286046990.6,P
1503853315.9,286047000.5,N
1503853335.7,286047000.1,N
1503853355.6,286046999.3,N
1503853375.4,286046997.5,N
1503853395.2,286046996.9,N
1503853415.1,286046998.5,N
1503853416.0,286046998.5,N
1503853435.8,286046996.5,N
1503853455.6,286046996.9,N
1503853475.5,286046999.0,N
1503853495.3,286046997.0,N
1503853515.1,286046998.7,N
1503853535.9,286047001.7,N
1503853555.7,286047003.6,N
1503853575.5,286047003.3,N
1503853595.3,286047003.6,N
1503853615.2,286047002.8,N
1503853635.0,286046999.4,N
1503853635.9,286046999.4,N
1503853655.7,286047000.0,N
1503853675.6,286047001.8,N
1503853695.4,286047002.9,N
1503853715.2,286047006.8,N
1503853735.1,286047004.6,N
1503853736.0,286047004.6,N
1503853755.8,286047001.6,N
1503853775.6,286047003.6,N
1503853795.7,286047005.1,N
1503853815.5,286047005.1,N
1503853835.3,286047007.2,N
1503853855.2,286047007.4,N
1503853875.9,286047006.0,N
1503853895.7,286047004.5,N
1503853915.5,286047005.8,N
1503853935.4,286047004.9,N
1503853955.2,286047007.6,N
1503853975.0,286047005.9,N
1503853975.9,286047005.9,N
1503853995.8,286047002.5,N
1503854015.6,286047001.9,N
1503854035.4,286047000.1,N
1503854055.3,286046999.0,N
1503854075.1,286047002.7,N
1503854076.0,286047002.7,N
1503854095.8,286047002.6,N
1503854115.7,286046998.2,N
1503854135.5,286046998.6,N
1503854155.3,286047004.4,N
1503854175.2,286047003.9,N
1503854195.9,286047004.0,N
1503854215.7,286047003.1,N
1503854235.6,286047003.4,N
1503854255.4,286047003.0,N
1503854275.2,286047005.6,N
1503854295.0,286047003.5,N
1503854295.9,286047003.5,N
1503854315.8,286047003.7,N
1503854335.6,286047004.5,N
1503854355.4,286047006.3,N
1503854375.3,286047008.3,P
1503854395.1,286047009.1,P
1503854415.8,286047008.5,P
1503854435.7,286047009.7,P
1503854455.5,286047007.5,P
1503854475.4,286047003.1,N
1503854495.2,286047003.9,N
1503854515.0,286047001.8,N
1503854515.9,286047001.8,N
1503854535.8,286047002.4,N
1503854555.6,286047001.7,N
1503854575.4,286047000.7,N
1503854595.2,286046998.2,N
1503854615.1,286047000.1,N
1503854616.0,286047000.1,N
1503854635.8,286046998.7,N
1503854655.6,286046999.6,N
1503854675.5,286047002.7,N
1503854695.3,286047004.1,N
1503854715.1,286047003.1,N
1503854735.9,286047005.3,N
1503854755.7,286047009.5,P
1503854775.5,286047007.9,N
1503854795.4,286047005.3,N
1503854815.2,286047003.6,N
1503854835.0,286047004.3,N
1503854835.9,286047004.3,N
1503854855.8,286047003.6,N
1503854875.6,286047003.5,N
1503854895.4,286047004.1,N
1503854915.3,286047001.3,N
1503854935.1,286047001.5,N
1503854936.0,286047001.5,N
1503854955.8,286046999.8,N
1503854975.7,286047002.5,N
1503854995.5,286047001.6,N
1503855015.3,286047002.8,N
1503855035.2,286047002.7,N
1503855055.9,286047001.4,N
1503855075.7,286047001.8,N
1503855095.5,286047001.3,N
1503855115.4,286047002.1,N
1503855135.2,286047000.5,N
1503855155.0,286046999.8,N
1503855155.9,286046999.8,N
1503855175.8,286046998.2,N
1503855195.6,286046999.1,N
1503855215.4,286046998.5,N
1503855235.3,286046998.4,N
1503855255.1,286047000.8,N
1503855256.0,286047000.8,N
1503855275.8,286047001.4,N
1503855295.7,286047003.9,N
1503855315.5,286047001.8,N
1503855335.3,286047004.2,N
1503855355.2,286047004.3,N
1503855375.9,286047004.0,N
1503855395.7,286047004.0,N
1503855415.6,286047001.2,N
1503855435.4,286046995.1,N
1503855455.2,286046989.8,P
1503855475.1,286046989.1,N
1503855476.0,286046989.1,N
1503855495.8,286046995.5,N
1503855515.6,286047001.1,N
1503855535.5,286047002.7,N
1503855555.3,286047001.6,N
1503855575.1,286047001.3,N
1503855595.8,286047002.5,N
1503855615.7,286047002.5,N
1503855635.1,286047003.1,N
1503855636.0,286047003.1,N
1503855655.8,286047003.5,N
1503855675.7,286047003.6,N
1503855695.5,286047002.0,N
1503855715.3,286047003.8,N
1503855735.1,286047010.4,N
1503855755.9,286047012.3,N
1503855775.9,286047010.7,N
1503855795.7,286047006.3,N
1503855815.5,286047005.7,N
1503855835.4,286047004.0,N
1503855855.2,286047001.7,N
1503855875.0,286047003.1,N
1503855875.9,286047003.1,N
1503855895.8,286047003.2,N
1503855915.6,286047001.5,N
1503855935.4,286047004.8,N
1503855955.3,286047009.1,N
1503855975.1,286047007.1,N
1503855976.0,286047007.1,N
1503855995.8,286047003.4,N
1503856015.6,286047003.5,N
1503856035.5,286047002.5,N
1503856055.3,286047000.9,N
1503856075.1,286047001.9,N
1503856095.9,286047004.2,N
1503856115.7,286047001.8,N
1503856135.5,286047000.0,N
1503856155.4,286047004.4,N
1503856175.2,286047003.5,N
1503856195.0,286047000.9,N
1503856195.9,286047000.9,N
1503856215.8,286046998.8,N
1503856235.6,286047000.4,N
1503856255.4,286047001.0,N
1503856275.3,286047001.1,N
1503856295.1,286047003.6,N
1503856296.0,286047003.6,N
1503856315.8,286047005.2,N
1503856335.7,286047005.0,N
1503856355.5,286047002.3,N
1503856375.3,286047001.8,N
1503856395.2,286047007.2,P
1503856415.9,286047005.9,N
1503856435.7,286047002.9,N
1503856455.6,286047001.4,N
1503856475.4,286047003.2,N
1503856495.2,286047005.0,N
1503856515.0,286047003.9,N
1503856516.0,286047003.9,N
1503856535.8,286047000.0,N
1503856555.6,286047002.5,N
1503856575.5,286047006.0,P
1503856595.3,286046997.9,N
1503856615.1,286046999.0,N
1503856635.9,286046998.2,N
1503856655.7,286047000.3,N
1503856675.5,286047002.2,N
1503856695.3,286047002.1,N
1503856715.2,286047002.1,N
1503856735.0,286047003.3,N
1503856735.9,286047003.3,N
1503856755.7,286047007.0,N
1503856775.6,286047005.7,N
1503856795.4,286047004.3,N
